This demonstration page uses our WeatherBlox Daily Observations layout. Learn more.

Left ArrowRight Arrow

Hourly Observations for February 6, 2015

Temp ( °F °C ) Dew Point ( °F °C ) Humidity (%) Winds ( mph kmh ) Pressure ( in mb ) Visibility ( mi km ) Precip ( " mm )
12:53 am 00:53 Clear 32 0 28 -2.2 85 85 E 3 6 30.30 1026 8 13 0.00 0.00
1:53 am 01:53 Clear 31 -0.6 26 -3.3 82 82 NNE 6 9 30.29 1026 7 11 0.00 0.00
2:53 am 02:53 Clear 30 -1.1 26 -3.3 85 85 N 6 9 30.27 1025 7 11 0.00 0.00
3:53 am 03:53 Clear 29 -1.7 25 -3.9 85 85 NNW 6 9 30.28 1025 7 11 0.00 0.00
4:53 am 04:53 Clear 29 -1.7 25 -3.9 85 85 N 5 7 30.27 1025 7 11 0.00 0.00
5:53 am 05:53 Clear 29 -1.7 25 -3.9 85 85 NNE 3 6 30.26 1025 7 11 0.00 0.00
6:53 am 06:53 Clear 28 -2.2 24 -4.4 85 85 NNE 5 7 30.27 1025 7 11 0.00 0.00
7:53 am 07:53 Sunny 28 -2.2 23 -5 81 81 N 3 6 30.29 1026 7 11 0.00 0.00
8:53 am 08:53 Sunny with Mist and Fog 34 1.1 30 -1.1 85 85 Calm 30.29 1026 6 10 0.00 0.00
9:53 am 09:53 Sunny 40 4.4 33 0.6 77 77 Calm 30.28 1025 10 16 0.00 0.00
10:53 am 10:53 Sunny 45 7.2 35 1.7 68 68 Calm 30.28 1025 10 16 0.00 0.00
11:53 am 11:53 Sunny 52 11.1 36 2.2 55 55 SSW 5 7 30.25 1024 10 16 0.00 0.00
12:53 pm 12:53 Sunny 59 15 36 2.2 42 42 SSW 5 7 30.21 1023 10 16 0.00 0.00
1:53 pm 13:53 Sunny 66 18.9 36 2.2 33 33 SW 8 13 30.16 1021 10 16 0.00 0.00
2:53 pm 14:53 Sunny 70 21.1 36 2.2 29 29 SW 10 17 30.12 1020 10 16 0.00 0.00
3:53 pm 15:53 Sunny 72 22.2 35 1.7 26 26 SSW 8 13 30.09 1019 10 16 0.00 0.00
4:53 pm 16:53 Sunny 72 22.2 36 2.2 27 27 S 7 11 30.07 1018 10 16 0.00 0.00
5:53 pm 17:53 Sunny 70 21.1 36 2.2 29 29 S 8 13 30.06 1018 10 16 0.00 0.00
6:53 pm 18:53 Clear 60 15.6 37 2.8 42 42 SSE 9 15 30.08 1019 10 16 0.00 0.00
7:53 pm 19:53 Clear 55 12.8 37 2.8 51 51 SE 10 17 30.09 1019 10 16 0.00 0.00
8:53 pm 20:53 Clear 51 10.6 38 3.3 61 61 SSE 8 13 30.10 1019 10 16 0.00 0.00
9:53 pm 21:53 Clear 50 10 40 4.4 68 68 SE 9 15 30.09 1019 10 16 0.00 0.00
10:53 pm 22:53 Clear 46 7.8 39 3.9 77 77 SSE 9 15 30.09 1019 10 16 0.00 0.00
11:53 pm 23:53 Clear 45 7.2 39 3.9 80 80 ESE 8 13 30.07 1018 10 16 0.00 0.00

Powered by AerisWeather